This demonstration page uses our WeatherBlox Daily Observations layout. Learn more.

Left ArrowRight Arrow

Hourly Observations for September 8, 2018

Temp ( °F °C ) Dew Point ( °F °C ) Humidity (%) Winds ( mph kmh ) Pressure ( in mb ) Visibility ( mi km ) Precip ( " mm )
12:25 am 00:25 Cloudy 62 16.7 59 15 90 90 ENE 7 11 30.18 1022 10 16 0.00 0.00
12:53 am 00:53 Cloudy 61 16.1 59 15 93 93 NE 8 13 30.19 1023 10 16 0.00 0.03
1:53 am 01:53 Cloudy 60 15.6 59 15 96 96 ENE 7 11 30.19 1022 9 14 0.00 0.00
2:27 am 02:27 Cloudy 61 16 57 14 88 88 E 5 7 30.15 1021 10 16 0.00 0.00
2:53 am 02:53 Cloudy 61 16.1 58 14.4 90 90 ENE 6 9 30.18 1022 10 16 0.00 0.00
3:53 am 03:53 Cloudy 61 16.1 57 13.9 87 87 ENE 10 17 30.17 1022 10 16 0.00 0.00
4:06 am 04:06 Cloudy 61 16 57 14 88 88 ENE 10 17 30.15 1021 10 16 0.00 0.00
4:32 am 04:32 Cloudy 61 16 55 13 83 83 undefined N/A 30.12 1020 10 16 0.00 0.00
4:53 am 04:53 Cloudy 60 15.6 56 13.3 86 86 ENE 8 13 30.17 1022 10 16 0.00 0.00
5:53 am 05:53 Cloudy 60 15.6 57 13.9 90 90 NE 5 7 30.16 1021 10 16 0.00 0.00
8:53 am 08:53 Cloudy 60 15.6 58 14.4 93 93 NE 6 9 30.16 1021 10 16 0.00 0.00
9:53 am 09:53 Cloudy 62 16.7 59 15 90 90 NE 7 11 30.16 1021 10 16 0.00 0.00
10:03 am 10:03 Cloudy 62 16.7 59 15 90 90 ENE 5 7 30.12 1020 10 16 0.00 0.00
10:23 am 10:23 Cloudy 64 18 61 16 88 88 NNE 5 7 30.12 1020 10 16 0.00 0.00
10:53 am 10:53 Cloudy 67 19.4 61 16.1 81 81 NE 8 13 30.15 1021 10 16 0.00 0.00
11:11 am 11:11 Cloudy 66 18.9 61 16.1 84 84 ENE 5 7 30.12 1020 10 16 0.00 0.00
11:53 am 11:53 Mostly Cloudy 70 21.1 62 16.7 76 76 VRB 6 9 30.14 1021 10 16 0.00 0.00
12:08 pm 12:08 Mostly Cloudy 70 21 63 17 78 78 NNE 8 13 30.09 1019 10 16 0.00 0.00
12:53 pm 12:53 Cloudy 68 20 61 16.1 78 78 E 8 13 30.14 1021 10 16 0.00 0.00
1:53 pm 13:53 Cloudy 68 20 61 16.1 78 78 ENE 9 15 30.13 1020 10 16 0.00 0.00
2:53 pm 14:53 Cloudy 70 21.1 61 16.1 73 73 ESE 6 9 30.10 1019 10 16 0.00 0.00
3:53 pm 15:53 Cloudy 71 21.7 61 16.1 71 71 ESE 9 15 30.09 1019 10 16 0.00 0.00
4:03 pm 16:03 Cloudy 72 22.2 62 16.7 71 71 ESE 8 13 30.03 1017 10 16 0.00 0.00
4:53 pm 16:53 Cloudy 71 21.7 62 16.7 73 73 SSE 7 11 30.08 1019 10 16 0.00 0.00
5:53 pm 17:53 Cloudy 71 21.7 62 16.7 73 73 ESE 7 11 30.07 1018 10 16 0.00 0.00
6:53 pm 18:53 Partly Cloudy 70 21.1 62 16.7 76 76 SE 5 7 30.06 1018 10 16 0.00 0.00
7:14 pm 19:14 Mostly Cloudy with Light Rain 70 21 63 17 78 78 ESE 10 17 30.03 1017 10 16 0.00 0.00
7:41 pm 19:41 Partly Cloudy 67 19.4 62 16.7 84 84 ESE 9 15 30.03 1017 10 16 0.00 0.03
7:53 pm 19:53 Sunny 67 19.4 62 16.7 84 84 ESE 9 15 30.05 1018 10 16 0.00 0.03
8:53 pm 20:53 Clear 64 17.8 61 16.1 90 90 ESE 7 11 30.06 1018 10 16 0.00 0.00
9:53 pm 21:53 Clear 62 16.7 60 15.6 93 93 ESE 5 7 30.08 1019 10 16 0.00 0.00
10:53 pm 22:53 Clear 61 16.1 60 15.6 97 97 ESE 5 7 30.09 1019 10 16 0.00 0.00
11:53 pm 23:53 Clear 61 16.1 60 15.6 97 97 SE 6 9 30.09 1019 10 16 0.00 0.00

Powered by AerisWeather